Weather in Ladynka

Ukraine / Chernihiv Region     51°17′09″N   31°08′30″E
temp.,
°C
wind,
m/s
gust,
m/s
humid.,
%
clouds,
%
prec.,
mm/h
press.,
hPa
HPBL,
m
16 may, mon
mon1600:00+8wnw410910 0.0 1015192
03:00+6wnw49890 0.0 1016148
06:00+6wnw388643 0.0 1016163
09:00+12wnw586573 0.0 1016659
12:00+14nw795622 0.3 10161616
15:00+15nw7114798 0.3 10162444
18:00+15nw684997 0.0 10162171
21:00+9nw33664 0.0 101621
17 may, tue
tue1700:00+7wnw357510 0.0 101781
03:00+7w387610 0.0 1016172
06:00+6w410855 0.2 1015236
09:00+12wnw58665 0.3 1014817
12:00+15nw810446 0.4 10132419
15:00+14nw89375 0.4 10132483
18:00+13nw79468 0.0 10131918
21:00+9wnw6135448 0.0 1013394
18 may, wed
wed1800:00+7nw6128098 0.0 1013468
03:00+5nw61286100 0.0 1015503
06:00+6nw6981100 0.0 1015958
09:00+6nnw71087100 0.1 10171057
12:00+7nnw7118398 0.1 1019703
15:00+10nnw71173100 0.1 10201207
18:00+11nnw697397 0.0 10211201
21:00+10nnw51072100 0.1 1023577
19 may, thu
thu1900:00+6nw47865 0.0 1023119
03:00+5wnw48905 0.0 1024145
06:00+5wnw49905 0.0 1024171
09:00+12wnw696416 0.0 1024653
12:00+16wnw7948100 0.0 10231464
15:00+17nw7944100 0.0 10221678
18:00+16nw61051100 0.0 1021859
21:00+11wnw346799 0.0 102152
20 may, fri
fri2000:00+12nw3766100 0.0 1021230
03:00+11nw2376100 0.1 102157
06:00+11n007999 0.0 102110
09:00+14sw236774 0.0 1020455
12:00+19sw3552100 0.0 10181304
15:00+20ssw5750100 0.0 1014889
18:00+17wnw4768100 0.6 1012132
21:00+14ssw2288100 2.6 100917